Погода в Туркменбаши

Погода в Туркменбаши : погода сейчас, прогноз погоды и архив. Всё, что Вы хотите узнать о погоде в Туркменбаши!

Поиск расширенной информации на нашем сайте:

Другие новости

Новости СМИ2

Главная страница сайта

Новости сайта

03.07.2017

Напоминаем, что на нашем специализированном сайте Метеоцентр.Азия вы можете получить высокодетализированные автоматические прогнозы погоды по пунктам России, СНГ и мира в авиационном формате (включающие направление и скорость ветра, видимость, явления погоды, количество и форму облачности, нижнюю и верхнюю границу облачности).

Рекомендуем: Видеоэндоскопы mitcorp видеоэндоскоп.

Погода в Туркменбаши - сегодня

Время (UTC), дата Ветер
(°,м/с) 
Видим.   Явления Облачность Т
(°С)
Тd
(°С)
f(%) Тe
(°С)
Pmin
(гПа)
dP
(гПа)
Po
(мм)
O2
(г/м3)
Тmin Tmax R s Состояние
почвы
00 18.09.17 090 (В) 4000 м    ясно 
+21.3 +6.8 39 +21  1017.7  -0.6  756  281           
03 18.09.17 тихо ()   20000 м    ясно 
+21.8 +9.5 45 +22  1018.5  0.8  757  281           
06 18.09.17 140 (ЮВ) 20000 м    ясно 
+32.5 +9.3 24 +33  1019.2  757  271  +20.7         
09 18.09.17 180 (Ю) 20000 м    ясно 
+33.4 +9.2 23 +33  1018.3  -0.8  757  270           
12 18.09.17 270 (З) 20000 м    ясно 
+33.4 +8.9 22 +33  1017.7  -0.6  756  270           
15 18.09.17 300 (СЗ) 10 км    ясно 
+28.4 +12.8 38 +33  1017.3  -0.5  756  273    +33.6       
18 18.09.17 тихо ()   4000 м    ясно 
+23.5 +14.6 57 +31  1018  0.5  756  278    +33.6       
21 18.09.17 110 (В) 4000 м    ясно 
+22 +5.6 34 +22  1017.7  -0.4  756  281           
00 19.09.17 тихо ()   4000 м    ясно 
+22.2 +8 40 +22  1016.8  -0.8  755  280           
03 19.09.17 тихо ()   20000 м    ясно 
+22.3 +8.4 41 +22  1017.7  0.8  756  280           
06 19.09.17 140 (ЮВ) 20000 м    ясно 
+30.8 +6.4 22 +31  1018.3  0.9  757  273  +20.8         
09 19.09.17 160 (Ю) 20000 м    ясно 
+32 +6.2 20 +32  1018  -0.3  756  272           
12 19.09.17 220 (ЮЗ) 20000 м    ясно 
+32.4 +10.6 26 +34  1016.5  -1.4  755  270           
15 19.09.17 300 (СЗ) 10 км    ясно 
+28.2 +14.3 43 +36  1016.7  0.1  755  273    +33.5       
18 19.09.17 тихо ()   4000 м    ясно 
+22.6 +15.1 63 +31  1016.9  755  278    +33.5       
21 19.09.17 090 (В) 4000 м    ясно 
+21 +3.4 31 +21  1016.8  -0.2  755  282           
00 20.09.17 100 (В) 4000 м    ясно 
+22.2 +1.9 26 +22  1016.7  755  281           
03 20.09.17 080 (В) 20000 м    ясно 
+19.4 +6.7 44 +20  1016.6  -0.2  755  283           
06 20.09.17 080 (В) 20000 м    ясно 
+31.4 +5.3 19 +31  1016.7  0.4  755  272  +18.4         
09 20.09.17 180 (Ю) 20000 м    ясно 
+34.8 +5.6 16 +35  1015.9  -0.6  755  269           
12 20.09.17 210 (ЮЗ) 20000 м    ясно 
+34.3 +8.5 21 +34  1015  -0.9  754  269           
15 20.09.17 320 (СЗ) 10 км    ясно 
+28.7 +8.5 28 +29  1015  -0.2  754  274    +34.9       
18 20.09.17 360 (С) 4000 м    ясно 
+22.6 +7.1 37 +23  1015.4  0.1  754  280    +34.9       
21 20.09.17 080 (В) 4000 м    ясно 
+20.3 +5.3 37 +20  1015  -0.4  755  282           
00 21.09.17 060 (СВ) 4000 м    ясно 
+20.8 +6.8 40 +21  1015.1  0.1  754  281           
Время (UTC), дата Ветер
(°,м/с) 
Видим.   Явления Облачность Т
(°С)
Тd
(°С)
f(%) Тe
(°С)
Pmin
(гПа)
dP
(гПа)
Po
(мм)
O2
(г/м3)
Тmin Tmax R s Состояние
почвы

Для получения пояснительной информации подведите курсор к названию столбца.

ПОГОДА в Туркменбаши - архив

Всё, что Вы хотите узнать о погоде в Туркменбаши - удобно и подробно!

Выберите нужную дату (начиная с 1 января 2015* года) и нажмите кнопку "Найти".
Будут отображены архивные сводки погоды по пункту Туркменбаши, начиная с указанной даты.


Отображать данные в формате CSV (для использования в таблицах Excel)


Внимание! Наш архив погоды предназначен исключительно для личного некоммерческого использования в познавательных целях. Если Вам необходимы официальные справки о состоянии погоды (для производственных, юридических, коммерческих и т.п. целей), обращайтесь в органы Росгидромета.

*Примечание: данная дата относится к архиву по метеостанциям СССР (Россия, СНГ, Балтия).
Архив по метеостанциям Зарубежной Европы и Азии (кроме Китая) хранится 10 дней, по другим регионам земного шара (Китай, Африка, Америка, Австралия, Океания) - 1 день.

Туркменбаши - район местоположения метеостанции


Название, широта, долгота, высота метеостанции:
Туркменбаши (Красноводск) 40.1°ш. 53°д. -13 м над ур. моря [Туркменистан]

Дополнительная информация

В oтличие oт бoльшинства пoгoдных сайтoв мы публикуем пoдрoбную метеoинфoрмацию в детальнoм прoфессиoнальнoм фoрмате.

Характеристики температуры и влажнoсти вoздуха измеряются на высoте 2 м в тени вдали oт зданий и деревьев.
Скoрoсть ветра измеряется на высoте 10 м (на урoвне рoста челoвека скoрoсть ветра ниже в 1.5-2 раза). Если метеoстанция нахoдится в гoрoде или в лесу, тo скoрoсть ветра занижена на 2-4 м/с пo сравнению с oткрытым местoм. Скoрoсть ветра над акватoриями крупных рек и oзёр, а также на вершинах хoлмoв на 2-5 м/с выше, чем в oбычных услoвиях.
Атмoсфернoе давление в разных тoчках местнoсти мoжет значительнo oтличаться oт давления на метеoстанции, в зависимoсти oт услoвий рельефа (при пoдъёме на 10 м давление пoнижается примернo на 1 мм рт.ст.).